Total_Precipitation_Accumulation
0.01 0.05 0.20 0.39 0.76 1.26 1.32 0.86 0.71 0.47 0.38 0.40 0.31 0.28 0.36 0.55 0.75 0.99 0.42 0.19 0.11 0.09 0.14 0.22 0.24 0.20 0.22 0.25 0.33 0.41 0.47 0.54 0.56 0.57 0.61 0.61 0.62 0.60 0.58 0.56 0.52 0.52 0.48 0.41 0.35 0.34 0.34 0.33 0.35
0.02 0.06 0.22 0.42 0.95 1.51 1.25 0.62 0.44 0.36 0.33 0.37 0.34 0.34 0.50 0.52 0.39 0.38 0.25 0.17 0.10 0.07 0.10 0.12 0.16 0.16 0.16 0.22 0.29 0.40 0.44 0.44 0.44 0.52 0.56 0.55 0.58 0.59 0.57 0.53 0.52 0.50 0.44 0.37 0.30 0.31 0.31 0.29 0.28
0.02 0.06 0.21 0.44 0.83 1.09 0.87 0.49 0.34 0.28 0.34 0.48 0.51 0.42 0.60 0.54 0.40 0.37 0.23 0.12 0.09 0.08 0.12 0.12 0.13 0.12 0.13 0.17 0.25 0.38 0.42 0.41 0.44 0.49 0.49 0.50 0.52 0.55 0.52 0.52 0.54 0.51 0.42 0.34 0.29 0.27 0.25 0.23 0.21
0.02 0.10 0.20 0.35 0.49 0.49 0.46 0.36 0.29 0.29 0.34 0.46 0.56 0.54 0.61 0.42 0.26 0.25 0.18 0.11 0.07 0.09 0.14 0.14 0.13 0.11 0.11 0.13 0.20 0.31 0.37 0.41 0.46 0.46 0.45 0.51 0.57 0.56 0.49 0.50 0.49 0.46 0.40 0.34 0.33 0.27 0.20 0.21 0.20
0.03 0.09 0.19 0.33 0.38 0.38 0.34 0.33 0.30 0.37 0.43 0.51 0.56 0.75 0.74 0.48 0.32 0.22 0.18 0.13 0.06 0.07 0.11 0.12 0.13 0.12 0.13 0.14 0.23 0.36 0.42 0.43 0.40 0.41 0.51 0.58 0.57 0.55 0.54 0.49 0.44 0.39 0.34 0.30 0.33 0.30 0.28 0.27 0.27
0.03 0.05 0.13 0.25 0.30 0.33 0.30 0.26 0.23 0.32 0.47 0.62 0.70 0.79 0.82 0.62 0.45 0.32 0.22 0.17 0.11 0.08 0.12 0.16 0.18 0.17 0.15 0.16 0.21 0.30 0.33 0.36 0.39 0.44 0.48 0.47 0.43 0.43 0.47 0.44 0.41 0.35 0.33 0.35 0.34 0.32 0.33 0.37 0.37
0.02 0.04 0.06 0.14 0.20 0.22 0.23 0.26 0.24 0.28 0.45 0.61 0.67 0.89 0.97 0.83 0.60 0.42 0.33 0.34 0.33 0.20 0.18 0.22 0.26 0.26 0.23 0.23 0.27 0.30 0.33 0.36 0.39 0.42 0.43 0.40 0.37 0.38 0.39 0.38 0.39 0.35 0.36 0.36 0.36 0.32 0.31 0.36 0.39
0.01 0.03 0.04 0.08 0.14 0.21 0.18 0.21 0.23 0.30 0.34 0.45 0.55 0.77 1.00 0.85 0.62 0.61 0.72 0.69 0.72 0.51 0.36 0.33 0.39 0.48 0.41 0.33 0.33 0.34 0.35 0.36 0.38 0.42 0.44 0.47 0.47 0.44 0.47 0.46 0.45 0.42 0.43 0.44 0.45 0.41 0.38 0.41 0.42
0.01 0.02 0.03 0.06 0.09 0.14 0.11 0.16 0.21 0.19 0.24 0.33 0.44 0.61 0.78 0.67 0.64 0.87 1.16 1.02 0.96 0.80 0.57 0.44 0.40 0.52 0.58 0.49 0.42 0.46 0.47 0.46 0.50 0.60 0.62 0.76 0.91 0.82 0.85 0.69 0.72 0.74 0.74 0.73 0.72 0.67 0.61 0.53 0.50
0.00 0.02 0.02 0.03 0.04 0.06 0.07 0.14 0.18 0.22 0.42 0.66 0.76 0.79 0.80 0.87 0.95 1.17 1.28 1.15 1.07 0.99 0.77 0.63 0.54 0.50 0.56 0.58 0.72 0.88 0.83 0.81 0.90 1.05 1.10 1.35 1.46 1.35 0.92 0.92 1.17 1.34 1.38 1.31 1.30 1.26 1.04 0.89 0.86
0.00 0.01 0.02 0.01 0.02 0.04 0.06 0.09 0.15 0.25 0.60 0.93 1.13 1.15 1.10 1.25 1.45 1.59 1.64 1.59 1.42 1.30 0.99 0.78 0.73 0.73 0.72 0.87 0.86 1.01 1.19 1.34 1.32 1.29 1.41 1.62 1.51 1.25 1.06 1.15 1.36 1.53 1.63 1.75 2.01 2.03 1.69 1.69 1.75
0.00 0.00 0.01 0.01 0.01 0.02 0.05 0.07 0.16 0.36 0.74 0.90 1.09 1.20 1.14 1.35 1.55 1.66 2.10 2.16 1.74 1.45 1.31 1.16 1.05 1.04 1.10 1.02 1.11 1.12 1.15 1.24 1.30 1.44 1.51 1.65 1.76 1.65 1.54 1.65 1.69 1.85 2.00 2.38 2.38 2.51 2.38 2.16 1.89
0.00 0.00 0.00 0.01 0.01 0.01 0.03 0.08 0.17 0.35 0.54 0.63 0.84 0.95 0.93 1.30 1.60 1.97 2.54 2.48 2.16 1.91 1.71 1.52 1.50 1.53 1.48 1.44 1.46 1.32 1.32 1.32 1.40 1.55 1.71 1.79 1.87 1.86 1.87 1.94 2.00 1.80 1.92 2.22 2.46 2.40 2.57 2.59 2.36
0.00 0.00 0.01 0.01 0.02 0.02 0.03 0.10 0.21 0.40 0.54 0.72 0.75 0.92 1.13 1.49 1.76 2.19 2.54 2.77 2.60 2.27 1.98 1.83 1.78 1.83 1.89 1.82 1.85 1.78 1.52 1.56 1.53 1.72 1.79 1.89 1.98 2.07 2.18 2.19 2.15 1.91 1.92 2.16 2.38 2.32 2.65 2.58 2.53
0.01 0.02 0.04 0.03 0.04 0.05 0.06 0.21 0.41 0.54 0.68 0.83 0.95 1.05 1.27 1.60 2.08 2.35 2.59 2.90 2.90 2.74 2.53 2.29 2.17 2.30 2.45 2.46 2.37 2.19 1.95 1.74 1.76 1.86 1.91 1.99 2.01 2.19 2.19 2.13 2.12 2.09 2.03 2.23 2.34 2.41 2.56 2.40 2.30
0.01 0.03 0.10 0.10 0.07 0.07 0.13 0.49 0.61 0.51 0.76 0.95 1.02 1.18 1.55 1.94 2.36 2.81 2.94 2.85 2.87 2.98 2.91 2.58 2.35 2.76 3.05 3.00 2.89 2.67 2.35 2.06 1.92 1.97 1.96 2.04 2.11 2.22 2.38 2.17 2.06 2.27 2.26 2.40 2.66 2.64 2.77 2.87 2.78
0.01 0.05 0.10 0.14 0.09 0.10 0.23 0.68 0.62 0.44 0.62 0.82 1.05 1.23 1.70 2.23 2.57 2.72 2.78 2.93 3.06 3.15 3.10 2.95 3.01 3.11 3.21 3.29 3.34 3.06 2.78 2.47 2.17 2.04 1.97 2.01 2.10 2.31 2.64 2.48 2.47 2.47 2.47 2.49 2.23 2.78 3.10 3.12 2.98
0.01 0.04 0.09 0.15 0.12 0.15 0.26 0.51 0.57 0.50 0.65 0.87 1.20 1.41 1.56 1.95 2.40 2.50 2.61 3.06 3.14 3.30 3.39 3.26 3.35 3.47 3.72 3.92 4.04 3.62 3.17 2.79 2.47 2.27 2.24 2.25 2.45 2.58 2.80 2.59 2.56 2.57 2.69 2.65 2.71 3.11 3.09 2.84 2.85
0.01 0.04 0.11 0.15 0.14 0.20 0.30 0.50 0.67 0.66 0.82 1.21 1.44 1.45 1.43 1.73 2.22 2.58 2.83 3.01 3.34 3.51 3.64 3.61 3.78 4.12 4.41 4.25 3.90 3.65 3.29 3.03 2.82 2.59 2.43 2.42 2.39 2.54 2.81 2.67 2.85 2.75 2.64 2.64 2.69 2.95 3.00 2.70 2.89
0.02 0.06 0.14 0.16 0.15 0.25 0.38 0.60 0.77 0.89 1.13 1.27 1.21 1.23 1.40 1.78 2.28 2.64 2.91 3.07 3.33 3.58 3.97 4.05 4.19 4.49 4.57 4.39 4.25 4.06 3.85 3.42 3.28 3.14 2.90 2.52 2.35 2.43 2.50 2.79 2.61 2.59 2.64 2.59 2.71 2.91 2.77 2.40 2.82
0.04 0.07 0.13 0.14 0.21 0.34 0.44 0.82 1.00 1.13 1.27 1.25 1.21 1.42 1.46 1.56 1.99 2.26 2.38 2.59 2.77 2.89 3.12 3.38 3.82 4.29 4.40 4.45 4.37 4.28 4.23 3.69 3.40 3.21 2.95 2.62 2.38 2.31 2.40 2.54 2.57 2.52 2.43 2.47 2.64 2.68 2.67 2.54 2.61
0.06 0.06 0.06 0.10 0.19 0.45 0.52 1.04 1.27 1.47 1.54 1.35 1.31 1.28 1.30 1.56 1.90 1.92 1.79 1.94 2.20 2.19 2.49 2.86 3.27 3.59 3.79 3.91 3.88 3.84 3.70 3.45 3.34 3.21 2.80 2.52 2.31 2.24 2.28 2.33 2.33 2.34 2.24 2.30 2.17 2.25 2.60 2.70 2.48
0.05 0.04 0.07 0.11 0.19 0.41 0.46 0.81 1.30 1.69 1.81 1.41 1.28 1.19 1.29 1.56 1.61 1.58 1.60 1.71 1.88 2.05 2.36 2.65 2.91 3.17 3.32 3.37 3.40 3.44 3.27 3.15 3.10 2.97 2.66 2.38 2.22 2.10 1.94 2.00 2.18 2.17 2.07 2.03 2.05 2.22 2.30 2.31 2.29
0.04 0.07 0.13 0.20 0.37 0.71 0.61 0.72 1.23 1.62 1.46 1.24 1.17 1.00 1.10 1.33 1.43 1.49 1.58 1.71 1.84 2.13 2.48 2.74 2.91 3.10 3.15 2.92 2.79 2.77 2.78 2.79 2.72 2.54 2.33 2.07 1.95 1.85 1.69 1.75 1.93 1.94 1.93 1.92 1.88 1.94 2.02 2.07 2.14
0.08 0.17 0.56 0.92 1.24 1.14 0.72 0.82 1.40 1.28 0.93 0.85 0.94 0.92 0.94 1.01 1.16 1.28 1.46 1.67 1.84 1.94 2.02 2.36 2.69 2.87 2.82 2.58 2.41 2.32 2.39 2.46 2.39 2.23 2.15 2.01 1.78 1.63 1.58 1.61 1.66 1.67 1.70 1.72 1.79 1.82 1.88 2.00 2.08
0.13 0.24 0.69 0.95 1.00 0.99 0.79 1.18 1.60 1.20 0.82 0.68 0.78 0.79 0.70 0.66 0.64 0.73 0.91 1.03 1.12 1.14 1.18 1.31 1.52 1.74 1.83 1.75 1.76 1.78 1.81 1.83 1.81 1.94 1.85 1.82 1.68 1.53 1.52 1.46 1.41 1.44 1.47 1.51 1.72 1.74 1.84 1.95 2.00
0.24 0.28 0.30 0.50 0.69 1.03 1.03 1.20 1.22 0.97 0.78 0.73 0.84 0.78 0.61 0.55 0.51 0.57 0.68 0.69 0.79 0.82 0.87 1.00 1.19 1.35 1.39 1.40 1.41 1.44 1.43 1.46 1.51 1.55 1.51 1.51 1.53 1.45 1.44 1.43 1.46 1.40 1.42 1.49 1.58 1.60 1.63 1.78 1.82
0.20 0.28 0.43 0.68 0.91 1.05 1.11 1.37 1.50 1.34 1.10 0.97 0.93 0.79 0.59 0.48 0.44 0.49 0.58 0.60 0.71 0.86 1.00 1.14 1.25 1.27 1.25 1.26 1.25 1.16 1.26 1.28 1.34 1.30 1.23 1.23 1.28 1.28 1.27 1.27 1.30 1.32 1.30 1.32 1.44 1.47 1.52 1.64 1.67
0.23 0.30 0.46 0.63 0.70 0.89 1.22 1.31 1.02 0.97 0.99 1.06 1.06 0.88 0.61 0.46 0.42 0.46 0.56 0.61 0.68 0.81 0.95 1.08 1.18 1.27 1.22 1.16 1.19 1.22 1.23 1.23 1.23 1.19 1.11 1.16 1.21 1.19 1.14 1.16 1.21 1.23 1.26 1.31 1.36 1.32 1.42 1.46 1.49
0.22 0.32 0.47 0.71 0.77 0.80 0.94 1.02 0.60 0.59 0.71 0.81 0.81 0.65 0.48 0.42 0.41 0.47 0.52 0.57 0.66 0.77 0.85 0.86 0.93 1.09 1.10 1.09 1.17 1.32 1.31 1.27 1.17 1.08 1.04 1.07 1.09 1.10 1.09 1.13 1.16 1.12 1.17 1.28 1.35 1.36 1.41 1.43 1.41